| time (UTC) | temp F | wind direction | speed MPH | gust MPH | rain 1hr in | rain 24hr in | rain mn in | humidity % | barometer mb |
| 20260902081543 | 58 | 114 | 0.0 | 3.0 | 0.00 | 0.01 | 0.00 | 94 | 1008.9 |
| 20260902080036 | 58 | 129 | 0.0 | 1.0 | 0.00 | 0.01 | 0.00 | 94 | 1009.1 |
| 20260902074535 | 58 | 131 | 0.0 | 4.0 | 0.00 | 0.01 | 0.00 | 94 | 1009.3 |
| 20260902073034 | 58 | 124 | 0.0 | 6.0 | 0.00 | 0.01 | 0.00 | 96 | 1009.4 |
| 20260902071532 | 57 | 130 | 0.0 | 5.0 | 0.00 | 0.01 | 0.00 | 96 | 1009.5 |
| 20260902070027 | 56 | 167 | 0.0 | 0.0 | 0.00 | 0.01 | 0.00 | 95 | 1009.5 |
| 20260902064527 | 56 | 167 | 0.0 | 0.0 | 0.00 | 0.01 | 0.01 | 95 | 1009.4 |
| 20260902063026 | 56 | 167 | 0.0 | 0.0 | 0.00 | 0.01 | 0.01 | 93 | 1009.4 |
| 20260902061527 | 56 | 167 | 0.0 | 0.0 | 0.00 | 0.01 | 0.01 | 94 | 1009.4 |
| 20260902060032 | 57 | 167 | 0.0 | 0.0 | 0.00 | 0.01 | 0.01 | 93 | 1009.6 |
| 20260902054524 | 57 | 167 | 0.0 | 0.0 | 0.00 | 0.01 | 0.01 | 91 | 1009.6 |
| 20260902053034 | 58 | 167 | 0.0 | 0.0 | 0.00 | 0.01 | 0.01 | 90 | 1010.0 |
| 20260902051529 | 59 | 167 | 0.0 | 0.0 | 0.00 | 0.01 | 0.01 | 91 | 1010.0 |
| 20260902050023 | 59 | 167 | 0.0 | 0.0 | 0.00 | 0.01 | 0.01 | 91 | 1010.1 |
| 20260902044523 | 59 | 167 | 0.0 | 0.0 | 0.00 | 0.01 | 0.01 | 90 | 1010.2 |
| 20260902043027 | 59 | 167 | 0.0 | 0.0 | 0.00 | 0.01 | 0.01 | 89 | 1010.1 |
| 20260902041522 | 60 | 167 | 0.0 | 0.0 | 0.00 | 0.01 | 0.01 | 88 | 1010.1 |
| 20260902040021 | 60 | 167 | 0.0 | 0.0 | 0.00 | 0.01 | 0.01 | 88 | 1010.1 |
| 20260902034522 | 61 | 167 | 0.0 | 0.0 | 0.00 | 0.01 | 0.01 | 86 | 1010.0 |
| 20260902033033 | 61 | 183 | 0.0 | 0.0 | 0.00 | 0.01 | 0.01 | 86 | 1010.0 |
| 20260902031519 | 62 | 162 | 0.0 | 0.0 | 0.00 | 0.01 | 0.01 | 86 | 1010.1 |
| 20260902030019 | 62 | 155 | 0.0 | 0.0 | 0.00 | 0.01 | 0.01 | 85 | 1010.1 |
| 20260902024519 | 63 | 222 | 0.0 | 0.0 | 0.00 | 0.01 | 0.01 | 85 | 1009.9 |
| 20260902023020 | 63 | 158 | 0.0 | 0.0 | 0.00 | 0.01 | 0.01 | 85 | 1009.9 |
| 20260902021519 | 63 | 174 | 0.0 | 1.0 | 0.00 | 0.01 | 0.01 | 84 | 1009.8 |
| 20260902020019 | 64 | 233 | 0.0 | 2.0 | 0.00 | 0.01 | 0.01 | 83 | 1010.0 |
| 20260902014532 | 64 | 30 | 0.0 | 1.0 | 0.00 | 0.01 | 0.01 | 84 | 1010.0 |
| 20260902013016 | 64 | 221 | 0.0 | 3.0 | 0.00 | 0.01 | 0.01 | 85 | 1009.9 |
| 20260902011531 | 64 | 186 | 0.0 | 0.0 | 0.00 | 0.01 | 0.01 | 86 | 1009.8 |
| 20260902010019 | 64 | 186 | 0.0 | 0.0 | 0.00 | 0.01 | 0.01 | 86 | 1009.6 |
| 20260902004515 | 64 | 224 | 0.0 | 3.0 | 0.00 | 0.01 | 0.01 | 86 | 1009.7 |
| 20260902003014 | 64 | 250 | 0.0 | 2.0 | 0.01 | 0.01 | 0.01 | 86 | 1009.8 |
| 20260902001514 | 64 | 206 | 0.0 | 0.0 | 0.01 | 0.01 | 0.01 | 86 | 1009.7 |
| 20260902000016 | 64 | 205 | 0.0 | 0.0 | 0.01 | 0.01 | 0.01 | 85 | 1009.7 |
| 20260901234533 | 65 | 233 | 0.0 | 0.0 | 0.01 | 0.01 | 0.01 | 85 | 1009.9 |
| 20260901233012 | 66 | 283 | 0.0 | 2.0 | 0.00 | 0.00 | 0.00 | 79 | 1009.8 |
| 20260901231513 | 67 | 259 | 0.0 | 4.0 | 0.00 | 0.00 | 0.00 | 77 | 1009.9 |
| 20260901230011 | 67 | 228 | 0.0 | 2.0 | 0.00 | 0.00 | 0.00 | 74 | 1009.8 |
| 20260901224509 | 67 | 114 | 0.0 | 3.0 | 0.00 | 0.00 | 0.00 | 77 | 1009.6 |
| 20260901223008 | 66 | 110 | 1.0 | 3.0 | 0.00 | 0.00 | 0.00 | 79 | 1009.7 |
| 20260901221519 | 66 | 281 | 0.0 | 4.0 | 0.00 | 0.00 | 0.00 | 79 | 1009.8 |
| 20260901220007 | 64 | 150 | 0.0 | 5.0 | 0.00 | 0.00 | 0.00 | 81 | 1009.8 |
| 20260901214509 | 64 | 127 | 0.0 | 1.0 | 0.00 | 0.00 | 0.00 | 86 | 1010.0 |
| 20260901213006 | 64 | 100 | 0.0 | 2.0 | 0.00 | 0.00 | 0.00 | 81 | 1010.0 |
| 20260901211510 | 65 | 179 | 0.0 | 6.0 | 0.00 | 0.00 | 0.00 | 81 | 1010.1 |
| 20260901210005 | 64 | 117 | 1.0 | 6.0 | 0.00 | 0.00 | 0.00 | 83 | 1010.1 |
| 20260901204504 | 64 | 96 | 0.0 | 6.0 | 0.00 | 0.00 | 0.00 | 85 | 1010.0 |
| 20260901203009 | 63 | 106 | 0.0 | 4.0 | 0.00 | 0.00 | 0.00 | 86 | 1010.2 |
| 20260901201503 | 64 | 104 | 0.0 | 1.0 | 0.00 | 0.00 | 0.00 | 85 | 1010.3 |
| 20260901200005 | 65 | 146 | 0.0 | 6.0 | 0.00 | 0.00 | 0.00 | 82 | 1010.2 |
| 20260901194501 | 66 | 112 | 1.0 | 6.0 | 0.00 | 0.00 | 0.00 | 77 | 1010.2 |
| 20260901193001 | 67 | 128 | 2.0 | 6.0 | 0.00 | 0.00 | 0.00 | 76 | 1010.2 |
| 20260901191559 | 66 | 115 | 2.0 | 6.0 | 0.00 | 0.00 | 0.00 | 78 | 1010.2 |
| 20260901190107 | 66 | 149 | 3.0 | 8.0 | 0.00 | 0.00 | 0.00 | 77 | 1010.3 |
| 20260901184556 | 65 | 150 | 1.0 | 7.0 | 0.00 | 0.00 | 0.00 | 78 | 1010.3 |
| 20260901183056 | 65 | 151 | 1.0 | 5.0 | 0.00 | 0.00 | 0.00 | 78 | 1010.5 |
| 20260901181557 | 65 | 148 | 2.0 | 6.0 | 0.00 | 0.00 | 0.00 | 77 | 1010.3 |
| 20260901180052 | 65 | 104 | 2.0 | 5.0 | 0.00 | 0.00 | 0.00 | 78 | 1010.2 |
| 20260901174552 | 65 | 99 | 2.0 | 8.0 | 0.00 | 0.00 | 0.00 | 78 | 1010.0 |
| 20260901173105 | 65 | 131 | 3.0 | 6.0 | 0.00 | 0.00 | 0.00 | 78 | 1010.0 |
| 20260901171551 | 65 | 139 | 2.0 | 7.0 | 0.00 | 0.00 | 0.00 | 80 | 1009.9 |
| 20260901170048 | 64 | 127 | 2.0 | 6.0 | 0.00 | 0.00 | 0.00 | 79 | 1009.8 |
| 20260901164554 | 63 | 84 | 1.0 | 6.0 | 0.00 | 0.00 | 0.00 | 82 | 1009.7 |
| 20260901163043 | 63 | 147 | 1.0 | 4.0 | 0.00 | 0.00 | 0.00 | 83 | 1009.9 |
| 20260901161542 | 62 | 160 | 2.0 | 7.0 | 0.00 | 0.00 | 0.00 | 84 | 1009.9 |
| 20260901160043 | 62 | 154 | 1.0 | 4.0 | 0.00 | 0.00 | 0.00 | 85 | 1010.1 |
| 20260901154541 | 61 | 101 | 2.0 | 8.0 | 0.00 | 0.00 | 0.00 | 86 | 1010.0 |
| 20260901153040 | 61 | 138 | 2.0 | 6.0 | 0.00 | 0.00 | 0.00 | 88 | 1010.0 |
| 20260901151532 | 60 | 164 | 0.0 | 3.0 | 0.00 | 0.00 | 0.00 | 91 | 1010.1 |
| 20260901150030 | 59 | 156 | 0.0 | 2.0 | 0.00 | 0.00 | 0.00 | 92 | 1010.0 |
| 20260901144535 | 58 | 157 | 1.0 | 5.0 | 0.00 | 0.00 | 0.00 | 94 | 1010.0 |
| 20260901143025 | 57 | 146 | 0.0 | 2.0 | 0.00 | 0.00 | 0.00 | 95 | 1009.9 |
| 20260901141526 | 57 | 142 | 0.0 | 2.0 | 0.00 | 0.00 | 0.00 | 95 | 1009.9 |
| 20260901140023 | 56 | 148 | 0.0 | 0.0 | 0.00 | 0.00 | 0.00 | 96 | 1009.8 |
| 20260901134522 | 56 | 148 | 0.0 | 0.0 | 0.00 | 0.00 | 0.00 | 96 | 1009.8 |
| 20260901133035 | 56 | 148 | 0.0 | 0.0 | 0.00 | 0.00 | 0.00 | 96 | 1009.7 |
| 20260901131521 | 55 | 148 | 0.0 | 0.0 | 0.00 | 0.00 | 0.00 | 96 | 1009.7 |
| 20260901130020 | 55 | 148 | 0.0 | 0.0 | 0.00 | 0.00 | 0.00 | 97 | 1009.7 |
| 20260901124520 | 54 | 148 | 0.0 | 0.0 | 0.00 | 0.00 | 0.00 | 96 | 1009.8 |
| 20260901123019 | 54 | 148 | 0.0 | 0.0 | 0.00 | 0.00 | 0.00 | 97 | 1009.9 |
| 20260901121520 | 54 | 147 | 0.0 | 0.0 | 0.00 | 0.00 | 0.00 | 96 | 1009.9 |
| 20260901120017 | 54 | 149 | 0.0 | 0.0 | 0.00 | 0.00 | 0.00 | 96 | 1009.8 |
| 20260901114515 | 54 | 147 | 0.0 | 0.0 | 0.00 | 0.00 | 0.00 | 96 | 1009.9 |
| 20260901113014 | 54 | 147 | 0.0 | 1.0 | 0.00 | 0.00 | 0.00 | 96 | 1009.8 |
| 20260901111513 | 54 | 147 | 0.0 | 1.0 | 0.00 | 0.00 | 0.00 | 97 | 1009.6 |
| 20260901110018 | 54 | 149 | 0.0 | 1.0 | 0.00 | 0.00 | 0.00 | 95 | 1009.2 |
| 20260901104510 | 54 | 149 | 0.0 | 2.0 | 0.00 | 0.00 | 0.00 | 96 | 1009.3 |
| 20260901103008 | 53 | 160 | 0.0 | 0.0 | 0.00 | 0.00 | 0.00 | 95 | 1009.2 |
| 20260901101509 | 53 | 144 | 0.0 | 2.0 | 0.00 | 0.00 | 0.00 | 95 | 1009.2 |
| 20260901100004 | 52 | 197 | 0.0 | 0.0 | 0.00 | 0.00 | 0.00 | 94 | 1008.9 |
| 20260901094502 | 53 | 197 | 0.0 | 0.0 | 0.00 | 0.00 | 0.00 | 94 | 1008.7 |
| 20260901093127 | 53 | 197 | 0.0 | 0.0 | 0.00 | 0.00 | 0.00 | 93 | 1008.8 |
| 20260901091606 | 53 | 197 | 0.0 | 0.0 | 0.00 | 0.00 | 0.00 | 93 | 1008.8 |
| 20260901090055 | 54 | 197 | 0.0 | 0.0 | 0.00 | 0.00 | 0.00 | 93 | 1008.9 |
| 20260901084552 | 54 | 197 | 0.0 | 0.0 | 0.00 | 0.00 | 0.00 | 91 | 1009.0 |
| 20260901083050 | 55 | 197 | 0.0 | 0.0 | 0.00 | 0.00 | 0.00 | 91 | 1008.9 |